Probability
0 0 0 0 0 0 0 0 0 0 0 0 0 0 0 0 0 0 0 0 0 0 0 0 0 0 0 0 0 0 0 0 0 0 0 0 0 0
0 0 0 0 0 0 0 0 0 0 0 0 0 0 0 0 0 0 0 0 0 0 0 0 0 0 0 0 0 0 0 0 0 0 0 0 0 0
0 0 0 0 0 0 0 0 0 0 0 0 0 0 0 0 0 0 0 0 0 0 0 0 0 0 0 0 0 0 0 0 0 0 0 0 0 0
0 0 0 0 0 0 0 0 0 0 0 0 0 0 0 0 0 0 0 0 0 0 0 0 0 0 0 0 0 0 0 0 0 0 0 0 0 0
0 0 0 0 0 0 0 0 0 0 0 0 0 0 0 0 0 0 0 0 0 0 0 0 0 0 0 0 0 0 0 0 0 0 0 0 0 0
0 0 0 0 0 0 0 0 0 0 0 0 0 0 0 0 0 0 0 0 0 0 0 0 0 0 0 0 0 0 0 0 0 0 0 0 0 0
0 0 0 0 0 0 0 0 0 0 0 0 0 0 0 0 0 0 0 0 0 0 0 0 0 0 0 0 0 0 0 0 0 0 0 0 0 0
0 0 0 0 0 0 0 0 0 0 0 0 0 0 0 0 0 0 0 0 0 0 0 0 0 0 0 0 0 0 0 0 0 0 0 0 0 0
0 0 0 0 0 0 0 0 0 0 0 0 0 0 0 0 0 0 0 0 0 0 0 0 0 0 0 0 0 0 0 0 0 0 0 0 0 0
0 0 0 0 0 0 0 0 0 0 0 0 0 0 0 0 0 0 0 0 0 0 0 0 0 0 0 0 0 0 0 0 0 0 0 0 0 0
0 0 0 0 0 0 0 0 0 0 0 0 0 0 0 0 0 0 0 0 0 0 0 0 0 0 0 0 0 0 0 0 0 0 0 0 0 0
0 0 0 0 0 0 0 0 0 0 0 0 0 0 0 0 0 0 0 0 0 0 0 0 0 0 0 0 0 0 0 0 0 0 0 0 0 0
0 0 0 0 0 0 0 0 0 0 0 0 0 0 0 0 0 0 0 0 0 0 0 0 0 0 0 0 0 0 0 0 0 0 0 0 0 0
0 0 0 0 0 0 0 0 0 0 0 0 0 0 0 0 0 0 0 0 0 0 0 0 0 0 0 0 0 0 0 0 0 0 0 0 0 0
0 0 0 0 0 0 0 0 0 0 0 0 0 0 0 0 0 0 0 0 0 0 0 0 0 0 0 0 0 0 0 0 0 0 0 0 0 0
0 0 0 0 0 0 0 0 0 0 0 0 0 0 0 0 0 0 0 0 0 0 0 0 0 0 0 0 0 0 0 0 0 0 0 0 0 0
0 0 0 0 0 0 0 0 0 0 0 0 0 0 0 0 0 0 0 0 0 0 0 0 0 0 0 0 0 0 0 0 0 0 0 0 0 0
0 0 0 0 0 0 0 0 0 0 0 0 0 0 0 0 0 0 0 0 0 0 0 0 0 0 0 0 0 0 0 0 0 0 0 0 0 0
0 0 0 0 0 0 0 0 0 0 0 0 0 0 0 0 0 0 0 0 0 0 0 0 0 0 0 0 0 0 0 0 0 0 0 0 0 0
0 0 0 0 0 0 0 0 0 0 0 0 0 0 0 0 0 0 0 0 0 0 0 0 0 0 0 0 0 0 0 0 0 0 0 0 0 0
0 0 0 0 0 0 0 0 0 0 0 0 0 0 0 0 0 0 0 0 0 0 0 0 0 0 0 0 0 0 0 0 0 0 0 0 0 0
0 0 0 0 0 0 0 0 0 0 0 0 0 0 0 0 0 0 0 0 0 0 0 0 0 0 0 0 0 0 0 0 0 0 0 0 0 0
0 0 0 0 0 0 0 0 0 0 0 0 0 0 0 0 0 0 0 0 0 0 0 0 0 0 0 0 0 0 0 0 0 0 0 0 0 0
Wind_Speed
7 7 6 6 6 6 6 6 8 13 10 5 5 5 6 6 13 10 9 19 25 26 26 25 25 25 25 25 25 25 25 25 24 24 25 25 25 25
6 7 7 6 6 6 6 7 7 10 13 5 5 6 7 9 16 12 9 23 26 26 26 26 26 25 25 25 25 25 25 25 25 25 26 26 26 25
8 8 9 8 7 6 6 7 7 8 14 10 5 6 8 10 11 10 10 10 11 24 26 26 25 25 25 25 25 25 25 25 25 25 25 26 26 26
9 9 10 8 9 7 7 8 8 9 11 16 9 6 8 9 10 11 11 11 9 19 25 25 25 25 25 25 24 24 24 24 24 24 24 25 25 24
10 10 11 10 10 8 9 9 8 10 9 12 12 8 7 7 9 10 11 10 10 15 21 22 23 24 24 24 24 24 23 23 23 23 23 23 23 23
10 11 11 10 11 10 10 10 10 10 10 11 12 9 7 7 7 8 9 7 8 9 14 16 20 23 23 24 23 22 22 21 22 22 22 21 22 22
10 10 11 14 18 15 12 10 9 9 10 10 11 9 8 5 6 6 9 8 8 7 8 8 9 8 10 16 19 21 21 21 21 21 21 21 20 21
10 9 10 14 17 23 25 24 20 14 11 10 10 10 9 8 7 8 9 10 9 4 6 7 6 8 7 7 16 22 21 21 21 20 20 20 20 21
9 9 10 11 17 10 17 23 21 24 24 15 13 12 11 9 9 11 11 11 11 6 6 9 6 9 8 10 20 21 21 21 20 20 20 20 20 20
10 10 11 11 11 14 12 12 12 14 16 12 12 13 12 11 11 12 12 11 10 7 7 9 7 8 8 7 17 20 20 20 19 19 19 19 19 19
10 10 11 11 19 24 16 13 13 12 17 23 23 21 23 23 17 9 7 8 9 6 5 6 6 6 7 7 10 17 18 18 18 17 17 17 17 16
8 9 17 19 22 25 15 12 14 12 10 11 14 15 13 13 19 10 6 8 8 6 4 4 4 4 5 4 4 4 6 11 14 14 14 14 15 8
9 7 8 21 25 25 22 13 17 17 10 9 8 7 7 6 7 7 7 7 8 8 4 3 4 4 5 4 3 3 3 3 3 5 8 11 12 8
10 8 10 22 25 26 20 19 24 20 7 5 6 6 6 6 6 6 8 8 9 10 8 6 6 6 6 6 5 3 3 3 3 3 3 6 7 9
10 18 22 25 24 16 18 23 18 7 6 7 7 7 6 6 5 5 6 7 8 8 8 8 8 7 6 7 5 3 3 3 3 3 2 2 2 2
11 15 22 21 17 16 15 11 6 6 7 7 7 6 5 5 6 5 5 5 5 6 6 7 7 8 7 7 6 5 4 3 2 2 2 2 2 2
13 8 6 6 5 5 6 6 6 6 7 6 6 6 6 6 6 4 5 4 5 6 5 4 4 5 7 6 5 6 4 4 3 2 2 2 2 3
16 7 6 6 7 7 7 7 6 6 6 6 7 7 7 7 6 5 5 5 6 5 5 4 3 2 2 4 7 6 4 4 3 3 3 3 3 2
10 6 7 8 8 7 7 7 7 7 6 6 7 7 7 7 6 6 5 5 5 5 5 3 3 3 3 4 4 6 4 3 2 3 3 3 3 2
6 7 8 8 7 7 7 8 8 7 6 6 7 7 6 7 6 6 5 6 5 5 4 3 3 4 5 4 3 3 5 4 3 3 3 2 2 2
8 8 8 8 8 7 8 8 8 8 7 7 7 7 6 6 6 6 6 9 7 5 5 5 5 6 3 2 3 3 3 5 6 3 3 2 2 1
8 8 8 8 8 7 8 8 8 8 8 7 7 7 6 6 7 7 6 6 5 5 5 4 3 2 3 4 4 4 3 2 3 6 6 6 4 4
9 8 8 8 8 7 7 8 9 9 8 7 7 7 7 6 6 6 6 6 5 5 5 4 2 2 3 4 4 3 3 2 1 1 2 5 7 6
Wind_Direction
256 257 256 256 250 250 250 251 272 291 289 248 249 249 257 265 275 278 268 278 284 284 283 281 280 278 277 276 275 274 273 272 270 269 267 267 267 265
260 259 259 258 254 249 249 250 249 267 283 267 249 253 263 275 280 280 273 282 285 286 284 282 280 279 278 276 274 273 271 270 268 266 265 264 264 263
268 265 263 261 260 256 252 251 252 256 275 283 256 254 256 264 274 273 273 272 274 279 282 282 280 279 277 276 274 273 272 270 269 267 265 264 264 263
270 268 268 268 262 258 256 255 256 253 266 282 281 266 257 258 263 266 273 273 267 275 280 280 280 278 277 276 274 273 272 271 270 268 266 265 265 266
265 265 267 266 267 263 258 259 260 262 259 271 280 273 265 262 266 268 268 269 270 274 279 281 281 280 279 277 275 274 272 270 269 267 266 265 265 266
262 261 262 261 263 264 265 262 261 263 263 267 274 275 268 259 259 268 275 266 267 269 273 275 277 279 279 280 278 276 274 272 270 268 264 263 263 263
265 261 261 267 271 274 276 268 262 264 267 270 274 276 271 265 261 262 273 277 269 259 264 267 271 269 273 276 279 280 277 274 270 268 265 263 261 260
270 268 268 276 281 284 288 289 285 279 275 272 277 276 276 268 268 267 272 277 278 242 247 262 255 261 260 254 267 271 270 269 267 266 265 264 263 261
270 273 278 277 287 279 283 285 285 283 280 277 276 275 274 270 269 271 267 266 268 262 261 272 260 263 261 262 268 269 268 266 265 265 264 262 261 261
268 267 270 274 273 280 272 268 265 267 269 270 265 265 264 264 259 264 269 271 268 261 250 269 268 264 266 260 267 269 269 267 266 264 263 262 261 261
270 268 272 271 278 287 286 278 276 270 273 273 272 273 273 278 279 277 275 278 279 267 231 249 265 270 267 261 263 268 269 269 268 265 263 262 261 260
273 267 279 284 287 290 287 280 280 278 272 273 275 278 280 280 283 276 269 273 277 276 236 233 258 270 278 259 256 263 269 272 273 270 268 265 262 256
280 276 271 288 291 292 292 285 282 286 279 273 271 266 261 258 258 256 250 253 263 263 246 238 255 249 258 277 276 258 244 250 269 274 275 270 265 258
285 281 277 288 292 294 295 292 294 298 290 280 273 269 265 261 258 256 256 253 253 259 260 249 256 254 260 265 265 260 251 245 238 248 249 271 273 271
282 285 291 295 299 299 295 296 299 296 286 278 273 271 264 261 264 267 266 263 262 257 255 247 249 252 249 254 258 250 254 248 225 229 234 234 237 247
288 287 292 295 294 293 295 297 286 274 278 273 273 272 270 267 265 262 268 270 272 272 255 245 245 245 249 247 251 253 231 237 229 214 220 232 228 219
290 284 281 286 282 280 280 278 272 275 281 272 272 274 274 272 270 264 261 263 265 272 277 266 247 243 242 244 248 244 237 232 227 212 206 229 236 223
300 291 289 288 286 285 286 286 281 278 274 273 272 270 273 272 272 269 263 259 265 270 270 267 265 262 263 256 235 240 235 232 223 207 202 215 243 233
298 286 284 283 282 282 282 280 279 276 273 272 272 270 270 269 268 268 266 264 264 267 268 258 237 225 241 261 269 226 220 221 205 206 210 210 225 235
276 275 277 278 277 278 279 279 277 276 272 269 268 266 264 265 266 263 260 258 264 267 268 256 235 226 229 237 250 255 229 214 207 213 212 207 229 257
280 275 273 275 276 276 276 276 275 274 271 270 268 265 261 259 260 260 258 263 263 259 259 256 250 255 248 219 236 253 261 236 215 202 185 185 200 206
278 277 275 273 275 274 274 274 274 272 268 266 266 264 260 255 256 256 255 255 254 252 255 261 262 253 222 222 232 238 249 255 239 223 214 200 183 192
276 276 275 274 271 270 270 269 270 270 266 261 262 263 260 257 252 250 250 251 252 252 254 257 253 237 235 227 226 228 228 219 200 197 230 228 225 222